sat.trackr.live / text

‹ back to catalog

ONEWEB-0463

NORAD 51650 · 2022-012AE

PAYLOAD ACTIVE UNKNOWN

§ Identity

Operator
Country
UK
Launch date
2022-02-10
Launch site
FRGUI
Launch vehicle
Mass (kg)
RCS (m²)

Purposes: comms

External: N2YO · Heavens-Above · Gunter

§ Orbital elements

Epoch: 2026-05-25T03:01:21.335232Z

Period
109.29 min
Inclination
87.9152°
Eccentricity
0.0001788
Mean motion
13.17649515 rev/d
Perigee alt
1,192.4 km
Apogee alt
1,195.1 km
Semi-major
7,571.8 km
B*
1.7048e-5
RAAN
10.4661°
Arg perigee
89.0980°
Mean anomaly
271.0357°
Rev number
21,063

§ Raw data

ONEWEB-04631 51650U 22012AE  26145.12594138  .00000019  00000+0  17048-4 0  99982 51650  87.9152  10.4661 0001788  89.0980 271.0357 13.17649515210636

JSON: /api/v1/satellites/51650 · /tle

For live sub-satellite position, see the globe view (requires WebGL).

§ Visibility from observer

Set your observer location to see the next 7 days of passes ≥ 10°. The values pass through the URL so the page stays shareable.

No JS? Fill the form by hand. The geolocation button needs JavaScript.